Temp_Advection
nan nan nan nan nan nan nan nan nan nan nan nan nan nan nan nan nan nan nan nan nan nan nan nan nan nan nan nan nan nan nan nan nan nan nan nan nan nan nan nan nan nan nan nan nan
nan -0 -0 0 0 0 0 0 0 -0 -0 0 0 -0 -0 -0 -0 -0 -0 0 0 0 0 -0 -0 -0 -0 -0 -0 -0 -0 -1 -1 -0 0 1 1 0 0 -0 -0 0 1 1 nan
nan -0 -0 -0 0 1 0 0 0 0 -0 0 0 -0 -0 -0 0 -0 0 0 0 0 0 0 -0 -0 -0 -0 -0 -0 -1 -1 0 0 -0 -0 0 0 1 -0 -1 0 2 0 nan
nan -0 -0 -0 0 1 1 0 0 0 -0 -0 0 -0 -0 -0 -0 -0 0 0 0 0 0 -0 -0 -0 -0 -0 0 -0 -1 -0 -0 0 -0 -0 -0 -0 0 -1 1 -0 0 -0 nan
nan -2 -0 -0 0 1 1 0 0 0 -0 -0 -0 -0 -0 -0 -0 0 0 0 0 -0 0 -0 -0 -0 -0 -0 -0 -1 -0 0 0 -0 -0 -1 -0 -0 -0 -0 0 -0 -0 -0 nan
nan -1 -1 -1 1 1 0 0 0 0 0 -0 -0 0 -0 -0 -0 0 0 0 0 0 0 0 -0 -0 -0 -0 -0 -0 -0 -0 0 -0 -1 -1 -0 -0 0 -0 -1 0 -0 -0 nan
nan -1 -1 -1 1 1 0 0 0 0 0 -0 -0 0 -0 -0 0 0 0 0 0 0 0 0 0 0 -0 -0 -0 -0 -1 -0 -0 -0 -0 -0 0 -0 0 -0 -1 0 -0 -1 nan
nan -0 -0 -1 0 0 -0 -0 0 0 -0 -0 0 -0 -0 -0 0 0 0 0 0 0 0 0 0 0 0 -0 -0 -1 -0 -1 -1 -0 -0 0 -1 0 -0 -0 -0 -0 -0 -0 nan
nan -0 -0 -0 0 0 -0 -0 0 -0 -0 0 0 -0 -0 0 0 -0 0 0 0 0 0 0 0 0 0 -0 -1 -1 -0 -1 -1 -0 -0 0 -0 0 0 -0 -0 -0 0 -1 nan
nan -1 -0 -0 0 0 -0 -0 0 0 0 -0 -0 -0 -0 -0 0 0 0 0 0 0 0 -0 0 -0 -0 -0 -1 0 -1 -1 -1 -0 0 -0 -0 -0 0 0 -0 -0 -0 -0 nan
nan -0 -0 0 1 0 -0 -1 -0 -0 -0 -0 -0 -0 -0 0 0 0 0 0 -0 -0 -0 0 0 -0 -1 -1 0 -0 -1 -0 -1 -0 -0 -0 -0 0 -0 0 -0 -0 -0 -1 nan
nan -0 -0 0 0 0 0 -0 -0 -0 -0 0 0 -0 -0 0 0 -0 -0 -0 -0 -0 0 0 -0 -1 -0 -0 1 0 -1 -1 0 1 -0 -0 -0 -0 -0 0 0 -0 -0 -0 nan
nan -0 -0 1 0 0 0 0 0 0 -0 -0 -0 -0 0 0 -0 0 0 0 -0 0 0 -0 0 -0 -0 -0 0 -0 -1 -0 -0 -0 0 0 -0 -0 -0 0 -0 -0 0 0 nan
nan 0 0 0 -0 0 0 0 0 0 -0 -0 -0 0 0 -0 -0 0 0 0 0 -0 0 -0 -0 -0 0 -0 -0 -1 -1 -0 -0 -0 -0 0 -0 -0 -1 -0 0 0 -0 -0 nan
nan -0 0 -0 -0 0 -0 -0 0 0 -0 -0 -0 -0 -0 -0 0 0 0 0 -0 0 -0 0 -0 -0 -0 -1 -1 -0 -0 0 -0 0 -0 0 -0 -0 -0 -0 0 -0 -0 -0 nan
nan -0 0 -0 0 -0 0 0 0 -0 0 -0 0 -0 -0 -0 -0 0 0 -0 -0 -0 0 0 0 -0 -0 -0 -0 -0 0 0 0 -0 -0 -0 -0 -0 0 0 0 -0 0 -0 nan
nan -0 0 -0 0 -0 0 -0 0 -0 0 -0 -0 -0 0 0 0 -0 0 0 0 -0 0 0 0 -0 -0 0 -0 0 -0 0 0 0 0 -0 0 -0 0 0 -0 -1 -1 0 nan
nan 0 0 0 1 0 0 0 -0 -0 -0 0 -0 -0 0 0 -0 0 -0 0 -0 -0 0 0 -0 0 -0 0 -0 -0 0 0 0 -0 -0 -0 -0 0 0 -0 -1 0 -0 0 nan
nan 0 0 0 1 1 -0 -0 -0 0 0 -0 -0 0 -0 -0 0 0 0 -0 -0 0 0 -0 -0 -0 0 0 -0 -0 -0 -0 0 0 -0 -0 -0 0 0 -0 0 -0 -0 -0 nan
nan 0 -0 0 0 0 0 0 -0 -0 0 0 0 -0 0 0 0 -0 -0 -0 -0 0 -0 -0 -0 0 -0 -0 0 0 0 -0 0 0 -0 0 0 -0 -0 -0 0 -0 -0 -0 nan
nan -0 0 0 0 0 0 -0 0 -0 -0 0 0 0 0 -0 -0 -0 -0 -0 -0 -0 0 0 0 -0 -0 -0 -0 -0 -0 -0 0 -0 0 -0 -0 -0 -0 0 0 -0 -0 -0 nan
nan -0 -0 0 0 -0 0 -0 -0 -0 -0 0 0 0 -0 -0 0 -0 -0 -0 -0 -0 0 0 -0 -0 0 0 -0 -0 -0 -0 -0 -0 -0 0 -0 -0 0 0 -0 -0 -0 -0 nan
nan 0 0 0 0 -0 -0 -0 -0 0 -0 0 0 0 -0 0 -0 -0 -0 0 -0 0 -0 -0 -0 0 -0 -0 -0 0 0 -0 -0 -0 0 0 -0 0 0 -0 -0 -0 -0 -0 nan
nan -0 -0 -0 0 -0 -0 -0 -0 0 0 0 0 -0 -0 -0 -0 -0 0 0 0 -0 -0 0 -0 -0 -0 -0 -0 0 -0 -0 -0 0 0 -0 -0 -0 -0 -0 -0 -0 -0 -1 nan
nan -0 -0 -0 -0 0 -0 -0 -0 -0 -0 0 0 0 0 -0 -0 -0 0 -0 0 0 0 -0 -0 -0 0 0 0 0 0 -0 -0 0 0 0 -0 -0 -0 -0 -1 -1 -0 -0 nan
nan 0 -0 0 -0 0 -0 -0 -0 -0 -0 0 0 0 0 -0 -0 -0 0 -0 -0 0 -0 -0 -0 -0 0 0 0 -0 -0 -0 0 0 0 -0 -0 -0 -0 -0 -0 -0 -0 -0 nan
nan nan nan nan nan nan nan nan nan nan nan nan nan nan nan nan nan nan nan nan nan nan nan nan nan nan nan nan nan nan nan nan nan nan nan nan nan nan nan nan nan nan nan nan nan
Wind_Speed
17 22 32 22 25 20 14 13 15 17 14 9 11 12 11 12 10 9 8 5 3 9 6 2 1 3 3 9 12 8 9 16 24 25 22 24 19 24 29 19 14 22 21 6 10
24 19 20 29 24 21 14 11 13 15 14 8 10 10 10 11 9 10 7 4 4 4 2 1 3 2 7 7 8 13 13 20 21 17 16 28 20 18 13 22 24 20 16 11 19
27 19 22 24 26 22 15 12 12 14 12 8 10 10 8 9 7 2 5 7 5 4 4 1 1 3 8 11 12 11 19 17 15 19 18 18 18 22 25 17 23 22 22 18 21
24 21 21 17 26 21 17 10 10 10 12 8 9 9 7 5 3 7 8 5 7 4 4 1 1 3 5 9 14 14 20 21 22 16 16 13 20 15 21 26 25 14 13 17 20
21 20 21 18 22 20 13 6 6 11 9 8 9 8 6 4 8 10 10 8 6 6 4 4 6 5 8 6 8 17 20 20 15 19 24 18 17 17 18 10 12 14 13 25 28
22 17 17 19 23 22 11 2 5 7 10 7 9 7 5 8 7 11 10 8 5 2 4 5 4 5 9 12 12 11 18 25 18 16 16 19 19 14 11 9 16 14 16 25 31
23 15 8 13 26 18 4 3 5 7 11 9 9 7 8 12 7 11 10 8 7 4 6 8 7 9 2 9 18 21 18 15 18 22 15 19 20 15 9 7 17 17 17 18 34
20 17 10 13 21 14 8 4 4 4 2 8 10 7 8 6 11 11 10 9 9 7 6 6 7 11 9 10 9 13 17 17 17 16 15 12 20 17 2 3 10 15 21 14 31
21 13 11 13 26 19 8 3 2 5 3 8 8 6 6 6 9 7 8 9 8 9 8 6 6 7 5 7 7 12 12 19 16 19 12 14 8 5 3 5 8 16 21 12 33
21 13 15 14 25 14 7 10 8 6 7 8 9 4 7 5 5 6 8 10 9 6 6 7 5 4 4 6 8 10 17 16 17 20 17 13 9 7 6 4 15 18 21 15 22
19 7 13 21 24 13 13 14 8 2 10 8 4 3 4 4 7 7 7 5 6 6 9 6 5 10 11 16 6 2 12 14 15 19 17 12 8 9 6 4 12 17 17 16 21
17 6 5 20 14 13 13 10 10 2 4 16 7 11 7 6 4 7 6 4 5 9 8 5 10 13 13 14 13 2 13 15 9 19 11 10 10 6 8 5 10 16 14 12 9
18 3 8 26 17 13 8 10 8 5 3 5 7 6 1 5 4 4 6 2 6 9 12 11 5 9 8 7 8 8 12 12 11 14 5 11 5 4 3 2 8 10 11 9 7
14 7 21 20 12 10 8 12 7 6 1 5 3 2 2 4 3 4 4 5 3 5 5 7 5 6 8 11 9 9 15 10 16 15 5 7 4 9 13 7 4 7 7 5 8
9 7 19 21 7 14 6 17 9 4 3 4 3 2 3 3 2 3 6 7 4 2 3 2 3 6 5 7 13 3 14 16 19 10 7 9 4 6 10 4 6 5 10 8 10
4 11 16 21 11 10 15 17 11 2 2 3 3 2 3 3 1 2 4 8 5 1 1 2 1 3 3 7 15 7 8 3 1 3 5 4 6 2 6 5 0 1 12 11 14
2 5 17 21 13 14 20 17 3 3 1 4 2 3 3 3 2 2 4 4 5 2 3 2 2 2 2 6 8 7 11 3 3 3 4 2 2 4 5 6 4 10 10 3 12
4 1 31 20 18 20 21 2 3 2 3 2 2 2 4 3 1 3 4 6 6 4 2 3 3 3 1 2 3 4 2 2 5 4 4 3 5 5 9 9 10 6 6 3 7
6 21 22 17 21 23 11 2 2 2 4 7 3 3 2 2 2 4 5 7 6 9 3 2 4 6 7 4 2 1 3 2 5 3 5 3 5 5 6 11 11 11 13 15 11
17 27 17 21 20 15 2 2 1 1 2 1 1 2 2 3 1 3 6 5 7 6 4 3 4 6 6 5 3 5 1 1 1 4 5 5 8 6 7 9 9 13 17 17 17
25 9 13 19 16 5 1 1 2 2 2 2 2 4 2 1 3 3 4 3 6 7 5 3 3 4 3 7 8 4 2 4 1 3 4 5 5 6 3 5 10 11 12 12 13
9 3 18 21 4 1 1 2 1 2 1 1 2 3 2 1 3 2 3 3 11 5 4 4 3 4 4 2 4 3 5 3 2 4 4 8 5 5 5 7 10 9 8 10 12
7 9 17 8 2 4 2 1 2 2 1 1 2 1 1 2 1 1 2 4 8 6 4 3 3 2 4 4 2 5 6 4 2 1 3 3 6 4 7 7 12 10 9 8 11
8 3 5 3 2 4 2 2 3 1 1 1 2 1 2 2 4 3 1 3 6 4 7 1 4 5 3 4 2 2 7 9 5 3 7 10 15 5 8 8 9 10 10 12 14
5 3 6 4 6 5 2 2 4 2 2 3 2 3 2 2 1 2 1 2 1 6 3 2 4 4 7 6 3 6 7 8 5 3 5 7 8 9 9 9 12 12 14 14 15
5 5 5 5 10 4 3 4 7 2 1 1 3 3 4 3 3 1 1 0 2 4 3 2 4 2 3 5 4 6 4 3 5 3 5 4 9 6 6 9 12 13 13 14 14
8 14 7 9 8 5 4 4 6 4 2 3 4 4 8 4 5 7 7 8 5 2 3 2 2 1 2 5 1 4 5 5 3 5 3 3 5 7 8 9 6 8 10 11 13
Wind_Direction
310 326 282 321 294 293 297 298 292 305 314 282 292 309 308 294 296 290 277 234 178 198 242 268 273 258 237 223 223 225 241 237 235 235 242 239 242 233 240 254 255 214 233 287 210
295 323 304 294 298 288 289 287 288 296 311 265 279 295 310 306 307 285 256 212 164 220 191 217 250 258 232 224 223 223 237 237 246 249 240 245 221 236 235 242 249 237 244 212 204
291 309 297 295 289 285 282 283 288 294 305 256 271 281 312 320 315 237 162 151 178 204 241 273 257 234 233 228 220 225 240 243 254 252 261 278 245 252 235 236 250 252 243 194 196
291 295 304 291 269 278 271 285 285 298 302 253 270 279 310 308 305 166 139 169 195 237 289 259 242 238 251 232 231 248 247 250 259 261 278 267 257 257 238 219 232 300 288 202 182
311 283 287 295 279 253 256 275 288 302 291 262 270 280 292 255 245 198 183 202 221 254 251 224 230 244 249 250 257 245 250 252 256 254 261 271 264 254 263 265 269 298 288 212 192
326 314 290 286 257 242 245 260 300 300 272 240 261 266 250 249 228 207 205 215 233 252 216 216 248 255 278 265 254 262 256 255 246 253 269 255 259 256 242 298 295 311 301 220 203
327 317 292 302 246 229 199 220 276 276 256 207 240 253 255 250 216 203 213 222 231 250 231 231 234 219 278 278 261 250 254 257 237 237 240 242 250 240 240 294 272 275 319 258 219
326 328 295 320 225 221 194 200 261 291 175 190 230 252 258 239 224 216 229 245 238 262 246 252 250 245 241 264 277 240 233 241 237 217 215 208 239 233 142 350 307 310 325 273 215
323 326 281 267 222 214 208 112 176 147 181 209 225 231 265 235 229 230 244 243 243 259 267 250 206 223 233 230 229 226 223 220 232 202 182 204 231 196 329 345 330 317 322 294 223
321 309 310 219 207 194 145 123 140 173 205 218 226 231 234 216 214 251 250 250 246 250 270 237 239 237 203 196 224 209 222 211 219 180 192 194 236 255 289 318 323 315 310 297 216
312 300 33 198 199 176 133 128 124 167 208 208 199 256 234 235 282 251 231 230 217 220 242 244 218 239 222 223 260 56 234 208 200 172 189 198 242 246 215 246 319 300 300 304 230
304 302 348 220 178 158 147 158 157 174 225 233 234 250 258 278 247 213 214 234 226 247 235 211 251 269 261 239 222 195 230 206 165 161 183 184 214 224 195 187 275 274 299 304 220
300 307 208 207 186 164 170 153 150 175 259 217 221 255 240 223 252 217 187 220 243 252 237 235 235 328 241 206 194 235 236 182 149 153 168 169 188 211 125 248 254 266 282 282 209
299 28 160 172 168 181 204 168 151 174 284 171 208 234 201 218 219 229 219 224 209 268 254 243 255 207 166 180 196 216 210 197 160 160 119 217 147 42 6 305 265 282 252 220 183
276 219 190 195 215 173 132 159 159 145 217 124 156 216 242 244 329 242 223 199 231 229 262 81 127 145 184 210 194 178 171 192 173 136 123 26 97 345 353 260 185 295 193 175 141
216 193 196 204 181 145 136 151 140 183 227 169 142 201 221 166 204 282 250 222 197 187 114 48 321 239 280 182 190 281 154 199 83 81 58 342 67 73 331 345 142 305 120 161 152
157 216 226 209 184 143 145 142 139 228 272 157 162 211 103 19 4 253 286 322 27 240 39 289 89 251 299 180 191 246 161 115 90 74 79 310 150 11 1 23 354 329 328 123 159
202 116 181 180 156 146 152 120 211 94 199 135 174 160 74 12 199 342 293 5 57 52 40 69 114 11 306 71 176 138 332 358 116 118 114 36 43 339 2 47 100 337 323 80 146
103 160 160 150 150 155 161 193 345 210 151 155 166 98 70 46 310 332 27 7 360 5 30 78 64 330 30 348 313 181 48 318 104 86 100 94 129 81 52 43 53 78 87 73 73
136 152 134 152 154 151 170 355 334 247 142 146 108 346 104 24 331 14 15 6 341 6 311 61 110 14 320 311 90 32 359 202 23 111 95 102 69 67 18 29 49 48 50 62 67
135 98 136 149 143 151 173 358 312 250 321 351 97 111 87 71 32 46 22 356 351 342 12 3 357 65 265 11 4 15 30 39 74 359 129 125 74 7 32 61 66 64 59 62 71
107 86 153 140 112 169 171 335 291 166 277 18 71 84 83 75 59 73 55 358 345 319 24 10 75 84 71 318 291 339 18 352 315 91 40 93 75 19 58 72 56 68 70 63 45
81 87 152 134 123 178 316 272 268 169 255 76 93 16 32 76 81 44 345 355 5 22 11 354 32 114 128 166 136 25 5 12 36 45 35 118 128 63 80 53 19 16 14 14 15
103 109 128 179 83 187 224 177 145 88 113 61 95 151 124 67 37 112 90 333 350 25 34 1 45 1 66 62 19 33 13 7 18 39 92 93 126 78 38 35 32 25 14 14 20
83 116 162 177 175 187 274 191 163 132 52 27 101 74 80 105 91 78 43 334 7 13 54 33 85 63 50 20 33 56 47 35 59 59 92 110 99 45 32 29 26 24 35 40 37
116 144 132 151 157 180 233 194 174 119 341 80 130 74 36 63 7 56 134 49 6 7 53 34 118 145 92 50 64 75 52 58 62 75 92 123 116 42 48 50 53 49 36 28 19
115 130 123 144 161 183 182 158 181 155 55 26 132 101 68 47 71 70 76 71 53 17 58 44 115 1 69 1 30 109 29 32 80 55 5 51 48 19 26 29 41 47 35 13 354
Height
1512 1509 1507 1508 1507 1506 1505 1503 1503 1502 1500 1500 1500 1501 1499 1498 1495 1495 1496 1497 1496 1497 1497 1497 1499 1500 1500 1501 1501 1500 1493 1483 1478 1478 1478 1480 1483 1487 1489 1488 1486 1486 1489 1486 1484
1507 1504 1503 1502 1503 1503 1501 1500 1499 1499 1497 1497 1498 1498 1497 1496 1494 1493 1494 1494 1496 1495 1497 1497 1498 1499 1499 1499 1499 1496 1485 1479 1478 1478 1475 1478 1483 1484 1486 1485 1483 1485 1489 1490 1490
1500 1501 1499 1498 1498 1499 1497 1496 1495 1495 1495 1496 1497 1496 1495 1495 1493 1492 1492 1493 1495 1494 1494 1495 1496 1497 1497 1497 1494 1490 1483 1480 1480 1483 1480 1480 1479 1483 1483 1485 1481 1480 1484 1486 1486
1495 1495 1494 1492 1491 1492 1493 1493 1494 1492 1494 1494 1494 1495 1494 1494 1493 1492 1492 1495 1493 1492 1493 1494 1495 1496 1496 1493 1491 1489 1484 1484 1484 1485 1485 1483 1482 1479 1477 1478 1479 1480 1478 1479 1479
1488 1489 1487 1488 1487 1486 1488 1490 1491 1491 1490 1493 1493 1493 1494 1493 1493 1490 1491 1492 1492 1492 1493 1493 1495 1494 1492 1491 1491 1486 1482 1482 1483 1484 1482 1482 1480 1479 1477 1475 1476 1479 1477 1480 1480
1485 1482 1483 1482 1483 1481 1484 1486 1488 1487 1488 1490 1492 1492 1493 1493 1488 1489 1490 1490 1491 1491 1492 1492 1493 1494 1493 1492 1490 1482 1481 1479 1480 1481 1480 1480 1476 1478 1474 1470 1473 1475 1477 1478 1476
1481 1477 1478 1477 1477 1477 1480 1482 1483 1482 1485 1488 1491 1491 1492 1489 1487 1488 1488 1488 1489 1489 1490 1490 1491 1493 1491 1489 1485 1483 1481 1475 1474 1475 1476 1476 1473 1471 1474 1472 1472 1474 1473 1470 1472
1476 1474 1475 1477 1473 1474 1477 1478 1478 1481 1483 1486 1488 1490 1488 1484 1484 1485 1486 1486 1487 1487 1488 1488 1489 1490 1489 1487 1483 1477 1476 1471 1465 1469 1473 1475 1463 1462 1472 1472 1473 1470 1469 1466 1471
1472 1470 1469 1469 1468 1471 1474 1473 1477 1481 1484 1485 1488 1488 1486 1483 1483 1484 1484 1485 1485 1485 1485 1485 1486 1486 1487 1485 1478 1469 1461 1466 1461 1461 1465 1470 1463 1464 1471 1469 1472 1469 1469 1470 1469
1469 1466 1462 1462 1464 1468 1470 1471 1476 1480 1484 1485 1486 1490 1484 1482 1481 1480 1481 1482 1483 1483 1484 1484 1483 1481 1479 1478 1458 1457 1459 1455 1456 1456 1461 1464 1466 1465 1464 1462 1465 1466 1466 1465 1465
1466 1464 1463 1459 1461 1465 1467 1470 1478 1482 1482 1480 1479 1478 1479 1480 1479 1478 1478 1479 1479 1479 1479 1479 1481 1472 1470 1467 1462 1463 1455 1449 1446 1450 1457 1459 1460 1461 1462 1462 1465 1465 1465 1461 1458
1463 1460 1463 1463 1461 1463 1465 1466 1470 1476 1478 1476 1477 1477 1477 1477 1478 1476 1477 1478 1476 1474 1474 1478 1471 1467 1464 1463 1463 1471 1457 1446 1443 1448 1451 1459 1457 1457 1457 1459 1463 1467 1461 1457 1455
1458 1457 1456 1458 1460 1463 1463 1467 1469 1473 1476 1475 1476 1476 1476 1476 1474 1474 1475 1475 1473 1470 1469 1470 1463 1466 1464 1464 1465 1467 1454 1442 1441 1449 1450 1452 1455 1454 1453 1456 1460 1459 1456 1456 1457
1454 1455 1453 1456 1462 1460 1461 1464 1469 1473 1476 1472 1475 1474 1474 1473 1473 1471 1471 1473 1472 1467 1466 1466 1464 1463 1463 1459 1460 1455 1451 1442 1441 1438 1442 1452 1448 1446 1451 1454 1452 1453 1454 1457 1456
1452 1454 1455 1457 1457 1457 1460 1463 1469 1475 1465 1474 1472 1472 1471 1472 1471 1468 1468 1467 1467 1466 1470 1461 1461 1462 1463 1456 1456 1442 1447 1443 1439 1438 1440 1445 1440 1455 1452 1452 1454 1453 1454 1459 1459
1448 1452 1452 1453 1456 1458 1461 1465 1472 1477 1464 1472 1470 1469 1469 1469 1468 1468 1466 1466 1465 1467 1464 1464 1462 1461 1453 1449 1452 1447 1451 1448 1440 1439 1446 1449 1447 1461 1461 1455 1454 1455 1455 1457 1458
1446 1449 1450 1454 1456 1456 1462 1468 1473 1464 1473 1468 1467 1467 1462 1464 1466 1467 1463 1459 1459 1457 1460 1462 1459 1457 1455 1450 1450 1446 1446 1450 1450 1450 1458 1455 1450 1463 1454 1453 1452 1449 1452 1456 1458
1444 1445 1446 1451 1455 1458 1464 1469 1463 1466 1466 1467 1465 1464 1461 1466 1465 1464 1461 1454 1455 1460 1457 1452 1453 1455 1455 1451 1445 1445 1444 1441 1447 1446 1452 1452 1464 1466 1457 1455 1457 1455 1457 1456 1457
1443 1445 1448 1452 1456 1461 1467 1466 1461 1462 1462 1462 1464 1459 1463 1465 1466 1461 1461 1459 1457 1458 1451 1447 1458 1459 1455 1452 1451 1443 1446 1449 1446 1448 1445 1462 1465 1461 1458 1456 1458 1460 1460 1455 1455
1440 1446 1452 1455 1459 1465 1467 1464 1465 1466 1464 1464 1456 1462 1459 1462 1461 1459 1460 1462 1460 1460 1458 1455 1455 1464 1459 1452 1451 1446 1450 1445 1445 1443 1454 1461 1456 1461 1461 1463 1461 1459 1457 1460 1459
1442 1449 1456 1460 1464 1468 1465 1466 1466 1466 1465 1462 1461 1462 1464 1464 1465 1463 1466 1465 1463 1460 1458 1455 1449 1464 1460 1457 1457 1449 1445 1449 1448 1448 1437 1449 1463 1468 1468 1468 1465 1465 1465 1467 1470
1445 1453 1460 1463 1469 1468 1465 1470 1467 1466 1466 1465 1464 1464 1463 1465 1464 1464 1466 1468 1465 1464 1457 1459 1456 1462 1463 1464 1463 1460 1457 1454 1442 1453 1460 1440 1467 1470 1468 1468 1469 1471 1473 1474 1471
1450 1458 1465 1467 1467 1467 1470 1469 1468 1466 1466 1465 1464 1466 1466 1465 1465 1468 1468 1469 1467 1465 1463 1461 1460 1458 1459 1463 1462 1459 1461 1459 1458 1455 1462 1444 1467 1472 1471 1470 1470 1471 1472 1474 1474
1453 1463 1469 1471 1470 1469 1470 1466 1466 1467 1467 1467 1467 1466 1466 1466 1468 1469 1469 1468 1468 1467 1466 1465 1467 1464 1457 1467 1471 1465 1461 1459 1459 1454 1454 1454 1468 1473 1474 1476 1477 1477 1477 1474 1472
1453 1461 1464 1467 1470 1471 1472 1467 1465 1465 1467 1467 1466 1466 1466 1466 1468 1468 1470 1468 1468 1468 1468 1466 1474 1479 1474 1472 1472 1468 1468 1466 1471 1468 1461 1470 1471 1481 1480 1479 1478 1476 1475 1475 1473
1452 1458 1463 1464 1469 1472 1472 1467 1465 1468 1467 1466 1466 1468 1467 1466 1469 1467 1470 1470 1469 1467 1468 1470 1476 1479 1476 1475 1473 1472 1472 1473 1472 1472 1470 1472 1478 1484 1484 1483 1481 1479 1479 1478 1478
1452 1455 1460 1468 1470 1473 1468 1469 1468 1468 1470 1470 1469 1469 1470 1474 1473 1473 1473 1473 1472 1470 1470 1470 1472 1471 1474 1477 1472 1469 1477 1475 1476 1476 1474 1469 1479 1481 1481 1483 1483 1484 1484 1484 1482